Overview Statistics Trail Chart Weather Telemetry Raw packets
 

This is the latest recevied weather packets stored in our database for station/object VK4TOM-13. If no packets are shown the sender has not sent any weather packets the latest 10 day(s).

<< 28 29 30 31 32 33 34 >>
Time Temp. Humidity Pressure Rain* Wind** Luminosity Snow
1788160419 22.22° C 70% 1025 hPa 0 mm - - -
1788159818 22.22° C 70% 1025 hPa 0 mm - - -
1788159217 22.78° C 70% 1024.9 hPa 0 mm - - -
1788158616 22.78° C 70% 1024.7 hPa 0 mm - - -
1788158413 23.33° C 70% 1024.7 hPa 0 mm - - -
1788158165 23.33° C 70% 1024.6 hPa 0 mm - - -
1788157563 24.44° C 70% 1024.5 hPa 0 mm - - -
1788156962 25° C 70% 1024.5 hPa 0 mm - - -
1788156361 25.56° C 70% 1024.4 hPa 0 mm - - -
1788155761 26.67° C 70% 1024.3 hPa 0 mm - - -
1788155159 26.67° C 70% 1024.3 hPa 0 mm - - -
1788154558 26.67° C 70% 1024.3 hPa 0 mm - - -
1788153957 26.67° C 70% 1024.2 hPa 0 mm - - -
1788153356 27.22° C 70% 1024.3 hPa 0 mm - - -
1788152755 27.22° C 70% 1024.3 hPa 0 mm - - -
1788151856 28.33° C 70% 1024.4 hPa 0 mm - - -
1788151675 28.33° C 70% 1024.4 hPa 0 mm - - -
1788151194 28.33° C 70% 1024.5 hPa 0 mm - - -
1788150594 27.78° C 70% 1024.5 hPa 0 mm - - -
1788149993 27.78° C 70% 1024.6 hPa 0 mm - - -
1788149812 27.78° C 70% 1024.5 hPa 0 mm - - -
1788149445 27.78° C 70% 1024.7 hPa 0 mm - - -
1788148243 27.78° C 70% 1024.7 hPa 0 mm - - -
1788147764 28.33° C 70% 1024.9 hPa 0 mm - - -
1788146562 27.78° C 70% 1025.1 hPa 0 mm - - -

* Rain since midnight (hover to see other rain measurements)
** Current wind speed in m/s (hover to see current wind gust speed)